Stündliche Wetter Jugow

Heute, 6 März, Samstag

Zeit Temperatur Niederschläge Wind Luftdruck Luftfeuchtigkeit
00:00 -3°C° 0 mm 2 m/S 749 mmHg 73%
01:00 -3°C° 0 mm 2 m/S 749 mmHg 73%
02:00 -3°C° 0 mm 2 m/S 749 mmHg 73%
03:00 -3°C° 0 mm 2 m/S 749 mmHg 73%
04:00 -3°C° 0 mm 2 m/S 749 mmHg 73%
05:00 -3°C° 0 mm 2 m/S 749 mmHg 72%
06:00 -3°C° 0 mm 2 m/S 749 mmHg 72%
07:00 -3°C° 0 mm 2 m/S 750 mmHg 72%
08:00 -1°C° 0 mm 3 m/S 750 mmHg 65%
09:00 0°C° 0 mm 3 m/S 750 mmHg 58%
10:00 0°C° 0 mm 4 m/S 750 mmHg 51%
11:00 +1°C° 0 mm 4 m/S 750 mmHg 49%
12:00 +3°C° 0 mm 4 m/S 750 mmHg 46%
13:00 +3°C° 0 mm 4 m/S 749 mmHg 44%
14:00 +3°C° 0 mm 4 m/S 749 mmHg 45%
15:00 +3°C° 0 mm 4 m/S 749 mmHg 46%
16:00 +3°C° 0 mm 4 m/S 748 mmHg 48%
17:00 +1°C° 0 mm 4 m/S 748 mmHg 54%
18:00 0°C° 0 mm 3 m/S 748 mmHg 61%
19:00 -1°C° 0 mm 3 m/S 748 mmHg 67%
20:00 -1°C° 0 mm 3 m/S 748 mmHg 68%
21:00 -2°C° 0 mm 3 m/S 747 mmHg 70%
22:00 -2°C° 0 mm 3 m/S 747 mmHg 71%
23:00 -2°C° 0 mm 3 m/S 747 mmHg 73%

Morgen, 7 März, Sonntag

Zeit Temperatur Niederschläge Wind Luftdruck Luftfeuchtigkeit
00:00 -2°C° 0 mm 3 m/S 747 mmHg 74%
01:00 -2°C° 0 mm 3 m/S 747 mmHg 76%
02:00 -1°C° 0 mm 3 m/S 746 mmHg 77%
03:00 -1°C° 0 mm 3 m/S 746 mmHg 78%
04:00 -1°C° 0 mm 3 m/S 746 mmHg 79%
05:00 -1°C° 0 mm 3 m/S 745 mmHg 81%
06:00 -1°C° 0 mm 3 m/S 745 mmHg 83%
07:00 -2°C° 0 mm 3 m/S 745 mmHg 85%
08:00 -1°C° 0 mm 4 m/S 745 mmHg 79%
09:00 0°C° 0 mm 4 m/S 744 mmHg 74%
10:00 +1°C° 0 mm 5 m/S 744 mmHg 69%
11:00 +1°C° 0 mm 5 m/S 744 mmHg 66%
12:00 +2°C° 0 mm 5 m/S 744 mmHg 64%
13:00 +2°C° 0 mm 6 m/S 743 mmHg 61%
14:00 +2°C° 0 mm 5 m/S 743 mmHg 62%
15:00 +1°C° 0 mm 5 m/S 742 mmHg 64%
16:00 +1°C° 0 mm 5 m/S 741 mmHg 65%
17:00 0°C° 0 mm 4 m/S 741 mmHg 71%
18:00 0°C° 0 mm 3 m/S 741 mmHg 77%
19:00 -2°C° 0 mm 3 m/S 741 mmHg 83%
20:00 -2°C° 0 mm 3 m/S 741 mmHg 83%
21:00 -2°C° 0 mm 3 m/S 741 mmHg 83%
22:00 -2°C° 0 mm 3 m/S 741 mmHg 84%
23:00 -2°C° 0 mm 3 m/S 741 mmHg 84%

übermorgen, 8 März, Montag

Zeit Temperatur Niederschläge Wind Luftdruck Luftfeuchtigkeit
00:00 -2°C° 0 mm 3 m/S 741 mmHg 84%
01:00 -3°C° 0 mm 4 m/S 741 mmHg 84%
02:00 -3°C° 0.1 mm 4 m/S 741 mmHg 86%
03:00 -3°C° 0.1 mm 4 m/S 741 mmHg 88%
04:00 -3°C° 0.1 mm 4 m/S 740 mmHg 90%
05:00 -3°C° 0.2 mm 4 m/S 741 mmHg 91%
06:00 -2°C° 0.2 mm 3 m/S 741 mmHg 92%
07:00 -2°C° 0.2 mm 3 m/S 741 mmHg 93%
08:00 -1°C° 0.3 mm 3 m/S 741 mmHg 90%
09:00 -1°C° 0.3 mm 3 m/S 742 mmHg 86%
10:00 0°C° 0.3 mm 3 m/S 742 mmHg 83%
11:00 +1°C° 0.1 mm 3 m/S 742 mmHg 73%
12:00 +1°C° 0.1 mm 3 m/S 742 mmHg 64%
13:00 +2°C° 0.1 mm 3 m/S 743 mmHg 54%
14:00 +3°C° 0 mm 2 m/S 742 mmHg 54%
15:00 +3°C° 0 mm 2 m/S 742 mmHg 54%
16:00 +2°C° 0 mm 2 m/S 742 mmHg 53%
17:00 +1°C° 0 mm 2 m/S 742 mmHg 59%
18:00 +1°C° 0 mm 1 m/S 742 mmHg 64%
19:00 -2°C° 0 mm 0 m/S 743 mmHg 69%
20:00 -1°C° 0 mm 1 m/S 743 mmHg 70%
21:00 -1°C° 0 mm 1 m/S 743 mmHg 70%
22:00 -1°C° 0 mm 1 m/S 743 mmHg 70%
23:00 -1°C° 0 mm 1 m/S 743 mmHg 70%

9 März, Dienstag

Zeit Temperatur Niederschläge Wind Luftdruck Luftfeuchtigkeit
00:00 -1°C° 0 mm 1 m/S 743 mmHg 70%
01:00 -1°C° 0 mm 1 m/S 743 mmHg 69%
02:00 -1°C° 0 mm 1 m/S 742 mmHg 69%
03:00 -1°C° 0 mm 1 m/S 742 mmHg 69%
04:00 -1°C° 0 mm 1 m/S 742 mmHg 70%
05:00 -1°C° 0 mm 1 m/S 742 mmHg 69%
06:00 -1°C° 0 mm 1 m/S 742 mmHg 68%
07:00 -1°C° 0 mm 1 m/S 742 mmHg 67%
08:00 0°C° 0 mm 1 m/S 742 mmHg 62%
09:00 +2°C° 0 mm 1 m/S 742 mmHg 58%
10:00 +2°C° 0 mm 2 m/S 742 mmHg 53%
11:00 +2°C° 0 mm 2 m/S 742 mmHg 51%
12:00 +4°C° 0 mm 1 m/S 742 mmHg 50%
13:00 +5°C° 0 mm 1 m/S 742 mmHg 48%
14:00 +5°C° 0 mm 1 m/S 741 mmHg 50%
15:00 +5°C° 0 mm 1 m/S 741 mmHg 53%
16:00 +5°C° 0 mm 1 m/S 740 mmHg 55%
17:00 +4°C° 0 mm 1 m/S 741 mmHg 61%
18:00 +3°C° 0 mm 1 m/S 741 mmHg 66%
19:00 +2°C° 0 mm 1 m/S 741 mmHg 72%
20:00 +2°C° 0 mm 1 m/S 741 mmHg 76%
21:00 +1°C° 0 mm 1 m/S 741 mmHg 80%
22:00 +1°C° 0 mm 1 m/S 741 mmHg 83%
23:00 -1°C° 0 mm 2 m/S 741 mmHg 86%

10 März, Mittwoch

Zeit Temperatur Niederschläge Wind Luftdruck Luftfeuchtigkeit
00:00 -1°C° 0 mm 2 m/S 741 mmHg 89%
01:00 -1°C° 0 mm 2 m/S 741 mmHg 92%
02:00 +1°C° 0.1 mm 2 m/S 741 mmHg 93%
03:00 0°C° 0.1 mm 3 m/S 741 mmHg 94%
04:00 0°C° 0.1 mm 3 m/S 741 mmHg 95%
05:00 0°C° 0.1 mm 3 m/S 741 mmHg 95%
06:00 0°C° 0.1 mm 3 m/S 741 mmHg 96%
07:00 0°C° 0.1 mm 3 m/S 742 mmHg 96%
08:00 +1°C° 0.1 mm 3 m/S 742 mmHg 94%
09:00 +2°C° 0.1 mm 3 m/S 742 mmHg 91%
10:00 +2°C° 0.1 mm 3 m/S 742 mmHg 89%
11:00 +3°C° 0 mm 3 m/S 742 mmHg 84%
12:00 +4°C° 0 mm 3 m/S 742 mmHg 79%
13:00 +5°C° 0 mm 3 m/S 742 mmHg 75%
14:00 +5°C° 0 mm 3 m/S 742 mmHg 73%
15:00 +5°C° 0 mm 3 m/S 741 mmHg 72%
16:00 +5°C° 0 mm 3 m/S 741 mmHg 70%
17:00 +4°C° 0 mm 3 m/S 741 mmHg 74%
18:00 +3°C° 0 mm 3 m/S 741 mmHg 78%
19:00 +2°C° 0 mm 3 m/S 740 mmHg 82%
20:00 +2°C° 0 mm 3 m/S 740 mmHg 81%
21:00 +1°C° 0 mm 4 m/S 740 mmHg 80%
22:00 +3°C° 0 mm 4 m/S 740 mmHg 80%
23:00 +3°C° 0 mm 4 m/S 739 mmHg 78%

11 März, Donnerstag

Zeit Temperatur Niederschläge Wind Luftdruck Luftfeuchtigkeit
00:00 +2°C° 0 mm 5 m/S 739 mmHg 76%
01:00 +2°C° 0 mm 5 m/S 738 mmHg 74%
02:00 +3°C° 0 mm 5 m/S 738 mmHg 75%
03:00 +3°C° 0 mm 6 m/S 737 mmHg 75%
04:00 +3°C° 0 mm 6 m/S 736 mmHg 76%
05:00 +3°C° 0.1 mm 7 m/S 736 mmHg 77%
06:00 +3°C° 0.1 mm 7 m/S 736 mmHg 78%
07:00 +4°C° 0.1 mm 7 m/S 735 mmHg 79%
08:00 +4°C° 0 mm 8 m/S 735 mmHg 77%
09:00 +4°C° 0 mm 8 m/S 735 mmHg 75%
10:00 +5°C° 0 mm 8 m/S 735 mmHg 73%
11:00 +6°C° 0 mm 8 m/S 735 mmHg 70%
12:00 +7°C° 0 mm 8 m/S 735 mmHg 66%
13:00 +9°C° 0 mm 8 m/S 734 mmHg 63%
14:00 +9°C° 0 mm 8 m/S 734 mmHg 66%
15:00 +9°C° 0 mm 7 m/S 734 mmHg 69%
16:00 +9°C° 0 mm 7 m/S 734 mmHg 72%
17:00 +8°C° 0.3 mm 7 m/S 734 mmHg 75%
18:00 +7°C° 0.3 mm 6 m/S 735 mmHg 77%
19:00 +5°C° 0.3 mm 6 m/S 735 mmHg 80%
20:00 +5°C° 0 mm 6 m/S 735 mmHg 79%
21:00 +5°C° 0 mm 5 m/S 736 mmHg 79%
22:00 +3°C° 0 mm 5 m/S 736 mmHg 78%
23:00 +3°C° 0 mm 5 m/S 736 mmHg 80%
Mehr zeigen

Wir brauchen deine Erlaubnis

Meteoprog und unser Service Anbieter werden persönliche Daten aufbewahren, so wie Cookies, Geräte Bezeichnung oder ähnliche Technologien von deinem Gerät und Prozess, so wie Persönliche Daten Inhalte und Werbungen, genauso wie social Media und den Verkehr zu analysieren.

  • Aufbewahrung und/oder Zugang zu deiner Geräte Informationen.

    Cookies, Geräte Bezeichnung oder andere Informationen, können aufbewahrt oder Zugang zu deinem Gerät erhalten, für den Grund, der oben angegeben wird.

  • Personalisierte Werbung und Inhalte, Messungen, Einblick in das Publikum und Produkt Entwicklung.

    Werbungen und Inhalte können personalisiert werden, basierend auf ein Profil. Mehr Daten können besser personalisierte Werbungen und Inhalte hinzufügen. Werbung und Inhalte können gezeigt und gemessen werden. Einblicke über das Publikum, welche die Werbung gesehen haben und den Inhalt, können abgeleitet werden. So wie Daten können genutzt werden, um es zu verbessern oder die Benutzer Erfahrung zu verbessern das System und die Software.

Wenn du “Ich stimme zu” klickst, erlaubst du uns, die Cookies zu benutzen die Geräte Bezeichnung, den Web oder ähnliche Technologien zu benutzen. Deine Settings, können in deinem Gerät bei deinem Browser geändert werden.

Für den bestimmten Zweck, berechtigten Interessen beruhen darauf, mehr als auf den Inhalt. Du kannst mehr darüber in unseren Privaten und Cookie Politik lesen.